Valparaiso, IN

8:06 AM CDT on October 20, 2017 (GMT -0500)
Porter County Municipal

Weather History for KVPZ - November, 2013

Change the Weather History Date:

Friday, November 1, 2013

  Actual Average Record
Temperature  
Mean Temperature 46 °F 47 °F  
Max Temperature 49 °F 56 °F 79 °F (2016)
Min Temperature 43 °F 38 °F 26 °F (2002)
Degree Days  
Heating Degree Days 19 18  
Month to date heating degree days 19 18  
Since 1 July heating degree days 558 548  
Cooling Degree Days 0 0  
Month to date cooling degree days 0 0  
Year to date cooling degree days 810 713  
Moisture  
Dew Point 41 °F    
Average Humidity 87    
Maximum Humidity 100    
Minimum Humidity 66    
Precipitation  
Precipitation 0.06 in 0.14 in 1.26 in (2004)
Month to date precipitation 0.06 0.14  
Year to date precipitation 32.53 32.14  
Sea Level Pressure  
Sea Level Pressure 29.61 in    
Wind  
Wind Speed 13 mph (WSW)    
Max Wind Speed 31 mph    
Max Gust Speed 38 mph    
Visibility 9 miles    
Events Rain    
T = Trace of Precipitation, MM = Missing Value Source: NWS Daily Summary

Daily Weather History Graph

Daily Weather History Graph

Search for Another Location

Airport or City:

Trip Planner

Search our weather history database for the weather conditions in past years. The results will help you decide how hot, cold, wet, or windy it might be!

Date:

Astronomy

Nov. 01, 2013 Rise Set
Actual Time 7:19 AM CDT 5:42 PM CDT
Civil Twilight 6:51 AM CDT 6:11 PM CDT
Nautical Twilight 6:18 AM CDT 6:44 PM CDT
Astronomical Twilight 5:46 AM CDT 7:16 PM CDT
Moon 5:10 AM CDT (11/1) 4:36 PM CDT (11/1)
Length of Visible Light 11h 20m
Length of Day
10h 22m
Waning Crescent, 4% of the Moon is Illuminated
Nov 1
Waning Crescent
Nov 3
New
Nov 9
First Quarter
Nov 17
Full
Nov 25
Last Quarter

Hourly Weather History & Observations

Time (CDT) Temp. Windchill Dew Point Humidity Pressure Visibility Wind Dir Wind Speed Gust Speed Precip Events Conditions
12:50 AM 44.6 °F 36.1 °F 42.8 °F 93% 29.42 in 10.0 mi West 21.9 mph 28.8 mph N/A   Overcast
12:53 AM 45.0 °F 36.0 °F 43.0 °F 93% 29.43 in 10.0 mi West 25.3 mph 34.5 mph N/A   Overcast
1:06 AM 44.6 °F 35.9 °F 42.8 °F 93% 29.43 in 10.0 mi West 23.0 mph 31.1 mph N/A   Overcast
1:33 AM 44.6 °F 36.6 °F 41.0 °F 87% 29.44 in 10.0 mi West 19.6 mph 32.2 mph N/A   Overcast
1:53 AM 45.0 °F 36.4 °F 42.1 °F 90% 29.45 in 10.0 mi West 23.0 mph 34.5 mph N/A   Overcast
2:32 AM 44.6 °F 36.4 °F 39.2 °F 81% 29.45 in 10.0 mi WSW 20.7 mph 27.6 mph N/A   Scattered Clouds
2:45 AM 44.6 °F 36.9 °F 39.2 °F 81% 29.46 in 10.0 mi WSW 18.4 mph 29.9 mph N/A   Mostly Cloudy
2:53 AM 44.1 °F 35.2 °F 39.9 °F 85% 29.47 in 10.0 mi WSW 23.0 mph 32.2 mph N/A   Mostly Cloudy
3:53 AM 44.1 °F 35.9 °F 39.9 °F 85% 29.48 in 10.0 mi West 19.6 mph 28.8 mph N/A   Overcast
4:53 AM 44.1 °F 37.1 °F 42.1 °F 93% 29.52 in 7.0 mi WSW 15.0 mph 24.2 mph 0.00 in Rain Light Rain
5:04 AM 44.6 °F 38.1 °F 42.8 °F 93% 29.52 in 4.0 mi WSW 13.8 mph - 0.00 in Rain Light Rain
5:16 AM 44.6 °F 39.2 °F 42.8 °F 93% 29.52 in 4.0 mi WSW 10.4 mph - 0.00 in Rain Light Rain
5:53 AM 44.1 °F 37.4 °F 43.0 °F 96% 29.54 in 8.0 mi WSW 13.8 mph - 0.00 in   Overcast
6:42 AM 44.6 °F 38.1 °F 42.8 °F 93% 29.55 in 9.0 mi WSW 13.8 mph 23.0 mph N/A   Mostly Cloudy
6:53 AM 45.0 °F 37.6 °F 42.1 °F 90% 29.56 in 10.0 mi WSW 17.3 mph - N/A   Mostly Cloudy
7:53 AM 45.0 °F 38.5 °F 43.0 °F 93% 29.57 in 10.0 mi WSW 13.8 mph - N/A   Overcast
8:43 AM 44.6 °F 38.4 °F 42.8 °F 93% 29.58 in 10.0 mi WSW 12.7 mph - N/A   Overcast
8:53 AM 45.0 °F 38.2 °F 42.1 °F 90% 29.60 in 10.0 mi WSW 15.0 mph - N/A   Overcast
9:16 AM 44.6 °F 38.1 °F 39.2 °F 81% 29.58 in 10.0 mi West 13.8 mph - N/A   Overcast
9:53 AM 45.0 °F 39.3 °F 39.9 °F 82% 29.59 in 10.0 mi WSW 11.5 mph - N/A   Overcast
10:06 AM 44.6 °F 38.4 °F 39.2 °F 81% 29.59 in 10.0 mi West 12.7 mph - N/A   Overcast
10:53 AM 46.0 °F 39.3 °F 39.0 °F 76% 29.60 in 10.0 mi WSW 16.1 mph 20.7 mph N/A   Overcast
11:53 AM 48.0 °F - 39.0 °F 71% 29.61 in 10.0 mi SW 13.8 mph 20.7 mph N/A   Overcast
12:10 PM 48.2 °F - 39.2 °F 71% 29.61 in 10.0 mi WSW 15.0 mph 21.9 mph N/A   Overcast
12:35 PM 48.2 °F - 37.4 °F 66% 29.61 in 10.0 mi WSW 15.0 mph - N/A   Overcast
12:53 PM 48.9 °F - 37.9 °F 66% 29.62 in 10.0 mi WSW 16.1 mph - N/A   Overcast
1:53 PM 48.0 °F - 39.9 °F 74% 29.62 in 10.0 mi WSW 15.0 mph 20.7 mph N/A   Overcast
2:21 PM 48.2 °F - 39.2 °F 71% 29.62 in 10.0 mi WSW 12.7 mph - N/A   Overcast
2:53 PM 48.0 °F - 39.0 °F 71% 29.63 in 10.0 mi WSW 12.7 mph - N/A   Overcast
3:53 PM 48.0 °F - 39.9 °F 74% 29.65 in 10.0 mi WSW 9.2 mph - N/A   Overcast
4:25 PM 48.2 °F - 41.0 °F 76% 29.65 in 10.0 mi West 9.2 mph - N/A   Overcast
4:53 PM 46.9 °F - 42.1 °F 83% 29.67 in 9.0 mi West 11.5 mph - 0.00 in Rain Light Rain
5:53 PM 46.0 °F 40.6 °F 41.0 °F 83% 29.68 in 10.0 mi West 11.5 mph - 0.00 in   Overcast
6:53 PM 44.1 °F 38.6 °F 43.0 °F 96% 29.71 in 10.0 mi West 10.4 mph - 0.01 in Rain Light Rain
7:53 PM 44.1 °F 38.6 °F 42.1 °F 93% 29.73 in 7.0 mi West 10.4 mph - 0.00 in Rain Light Rain
8:14 PM 44.6 °F 38.8 °F 42.8 °F 93% 29.72 in 5.0 mi West 11.5 mph - 0.01 in Rain Light Rain
8:26 PM 44.6 °F 40.2 °F 42.8 °F 93% 29.72 in 5.0 mi West 8.1 mph - 0.03 in Rain Light Rain
8:41 PM 42.8 °F 37.5 °F 42.8 °F 100% 29.72 in 6.0 mi West 9.2 mph - 0.03 in Rain Light Rain
8:53 PM 43.0 °F 38.2 °F 43.0 °F 100% 29.73 in 6.0 mi West 8.1 mph - 0.03 in Rain Light Rain
9:53 PM 44.1 °F 40.8 °F 43.0 °F 96% 29.75 in 7.0 mi WNW 5.8 mph - 0.02 in Rain Light Rain
10:06 PM 44.6 °F 40.2 °F 42.8 °F 93% 29.74 in 8.0 mi West 8.1 mph - 0.00 in Rain Light Rain
10:18 PM 44.6 °F 39.7 °F 42.8 °F 93% 29.74 in 8.0 mi West 9.2 mph - 0.00 in Rain Light Rain
10:39 PM 44.6 °F 39.7 °F 42.8 °F 93% 29.74 in 7.0 mi West 9.2 mph - 0.00 in Rain Light Rain
10:53 PM 44.1 °F 39.0 °F 44.1 °F 100% 29.75 in 6.0 mi West 9.2 mph - 0.00 in Rain Light Rain
11:06 PM 44.6 °F 40.7 °F 42.8 °F 93% 29.74 in 7.0 mi West 6.9 mph - 0.00 in Rain Light Rain
11:14 PM 44.6 °F 40.2 °F 42.8 °F 93% 29.74 in 7.0 mi West 8.1 mph - 0.00 in Rain Light Rain
11:29 PM 44.6 °F 39.7 °F 42.8 °F 93% 29.74 in 8.0 mi West 9.2 mph - 0.00 in Rain Light Rain
11:49 PM 44.6 °F 40.2 °F 42.8 °F 93% 29.73 in 8.0 mi West 8.1 mph - 0.00 in   Overcast
11:53 PM 44.1 °F 39.5 °F 43.0 °F 96% 29.75 in 8.0 mi West 8.1 mph - 0.00 in   Overcast